AXB1168 VOBL-VOMM

Flight info

Callsign AXB1168
Flight time 0h 36m
Altitude 17000
Route BIA W116 MMV
Aircraft B38M/M-SDE1FGHILORVWXY/HB1

Departure

Time 2026-05-05 01:05
Airport Kempegowda International Airport Bengaluru (VOBL)

Arrival

Time 2026-05-05 01:41
Airport Chennai International Airport (VOMM)
Time Latitude Longitude Altitude Speed Heading
2026-05-05 00:32 13.20177 77.70981 2957 ft 0 kts 180°
2026-05-05 00:52 13.20194 77.70981 2945 ft 4 kts 191°
2026-05-05 00:53 13.20218 77.70991 2944 ft 4 kts 219°
2026-05-05 00:53 13.20234 77.71012 2947 ft 4 kts 248°
2026-05-05 00:53 13.20240 77.71038 2948 ft 3 kts 269°
2026-05-05 00:53 13.20240 77.71041 2947 ft 0 kts 270°
2026-05-05 00:56 13.20240 77.71038 2948 ft 1 kts 270°
2026-05-05 00:57 13.20240 77.71006 2946 ft 9 kts 271°
2026-05-05 00:57 13.20241 77.70924 2954 ft 12 kts 271°
2026-05-05 00:57 13.20242 77.70839 2960 ft 12 kts 270°
2026-05-05 00:57 13.20243 77.70758 2962 ft 11 kts 271°
2026-05-05 00:58 13.20244 77.70680 2964 ft 10 kts 270°
2026-05-05 00:58 13.20244 77.70609 2967 ft 9 kts 270°
2026-05-05 00:58 13.20244 77.70546 2969 ft 8 kts 270°
2026-05-05 00:58 13.20245 77.70490 2971 ft 7 kts 270°
2026-05-05 00:59 13.20246 77.70440 2973 ft 7 kts 271°
2026-05-05 00:59 13.20260 77.70398 2974 ft 7 kts 308°
2026-05-05 00:59 13.20311 77.70385 2975 ft 10 kts
2026-05-05 00:59 13.20406 77.70388 2976 ft 17 kts
2026-05-05 01:00 13.20521 77.70364 2975 ft 17 kts 309°
2026-05-05 01:00 13.20533 77.70253 2979 ft 15 kts 270°
2026-05-05 01:00 13.20534 77.70148 2982 ft 15 kts 270°
2026-05-05 01:00 13.20534 77.70043 2983 ft 15 kts 270°
2026-05-05 01:01 13.20534 77.69932 2985 ft 16 kts 270°
2026-05-05 01:01 13.20535 77.69821 2988 ft 15 kts 270°
2026-05-05 01:01 13.20536 77.69715 2990 ft 15 kts 270°
2026-05-05 01:01 13.20537 77.69607 2991 ft 16 kts 270°
2026-05-05 01:02 13.20538 77.69491 2991 ft 17 kts 270°
2026-05-05 01:02 13.20539 77.69368 2994 ft 17 kts 271°
2026-05-05 01:02 13.20542 77.69250 2997 ft 16 kts 272°
2026-05-05 01:02 13.20544 77.69136 3000 ft 17 kts 270°
2026-05-05 01:03 13.20544 77.68997 3001 ft 23 kts 270°
2026-05-05 01:03 13.20544 77.68822 3008 ft 24 kts 270°
2026-05-05 01:03 13.20548 77.68670 3013 ft 16 kts 279°
2026-05-05 01:03 13.20628 77.68616 3014 ft 16 kts
2026-05-05 01:04 13.20718 77.68639 3013 ft 10 kts 67°
2026-05-05 01:04 13.20714 77.68953 3006 ft 62 kts 90°
2026-05-05 01:04 13.20709 77.69603 2991 ft 118 kts 90°
2026-05-05 01:05 13.20698 77.70595 2969 ft 161 kts 90°
2026-05-05 01:05 13.20709 77.71845 3117 ft 185 kts 89°
2026-05-05 01:05 13.20760 77.73194 3627 ft 192 kts 89°
2026-05-05 01:05 13.20813 77.74590 4092 ft 201 kts 88°
2026-05-05 01:06 13.20860 77.76105 4355 ft 224 kts 88°
2026-05-05 01:06 13.20822 77.77778 4776 ft 242 kts 94°
2026-05-05 01:06 13.20573 77.79536 5184 ft 263 kts 101°
2026-05-05 01:06 13.20131 77.81432 5644 ft 277 kts 104°
2026-05-05 01:07 13.19633 77.83334 6487 ft 278 kts 105°
2026-05-05 01:07 13.18994 77.85222 7170 ft 282 kts 108°
2026-05-05 01:07 13.18381 77.87145 7789 ft 288 kts 105°
2026-05-05 01:07 13.17853 77.89125 8541 ft 290 kts 103°
2026-05-05 01:08 13.17391 77.91151 9274 ft 292 kts 101°
2026-05-05 01:08 13.16973 77.93211 10041 ft 294 kts 99°
2026-05-05 01:08 13.16584 77.95280 10517 ft 307 kts 99°
2026-05-05 01:08 13.16181 77.97518 10781 ft 326 kts 99°
2026-05-05 01:09 13.15769 77.99862 11151 ft 340 kts 99°
2026-05-05 01:09 13.15352 78.02267 11813 ft 342 kts 98°
2026-05-05 01:09 13.14944 78.04645 12517 ft 345 kts 98°
2026-05-05 01:09 13.14526 78.07091 13237 ft 349 kts 99°
2026-05-05 01:10 13.14105 78.09560 13959 ft 352 kts 99°
2026-05-05 01:10 13.13678 78.12055 14630 ft 356 kts 99°
2026-05-05 01:10 13.13247 78.14577 15278 ft 361 kts 99°
2026-05-05 01:10 13.12815 78.17102 15919 ft 364 kts 99°
2026-05-05 01:11 13.12375 78.19674 16551 ft 368 kts 100°
2026-05-05 01:11 13.11928 78.22290 16890 ft 373 kts 100°
2026-05-05 01:11 13.11472 78.24951 16959 ft 386 kts 100°
2026-05-05 01:11 13.10997 78.27725 16954 ft 402 kts 100°
2026-05-05 01:12 13.10512 78.30555 16954 ft 412 kts 100°
2026-05-05 01:12 13.10011 78.33476 16957 ft 417 kts 100°
2026-05-05 01:12 13.09505 78.36420 16971 ft 419 kts 100°
2026-05-05 01:12 13.08998 78.39373 16980 ft 419 kts 100°
2026-05-05 01:13 13.08498 78.42281 16982 ft 419 kts 100°
2026-05-05 01:13 13.07990 78.45232 16978 ft 419 kts 100°
2026-05-05 01:13 13.07483 78.48178 16976 ft 419 kts 100°
2026-05-05 01:13 13.06976 78.51117 16972 ft 419 kts 100°
2026-05-05 01:14 13.06467 78.54069 16968 ft 419 kts 100°
2026-05-05 01:14 13.05958 78.57019 16966 ft 419 kts 100°
2026-05-05 01:14 13.05448 78.59971 16963 ft 419 kts 100°
2026-05-05 01:14 13.04946 78.62878 16958 ft 419 kts 100°
2026-05-05 01:15 13.04436 78.65827 16951 ft 420 kts 100°
2026-05-05 01:15 13.03924 78.68785 16952 ft 420 kts 100°
2026-05-05 01:15 13.03413 78.71737 16948 ft 420 kts 100°
2026-05-05 01:15 13.02901 78.74692 16946 ft 420 kts 100°
2026-05-05 01:16 13.02397 78.77599 16941 ft 420 kts 100°
2026-05-05 01:16 13.01884 78.80555 16934 ft 420 kts 100°
2026-05-05 01:16 13.01369 78.83520 16938 ft 420 kts 100°
2026-05-05 01:16 13.00858 78.86463 16928 ft 420 kts 100°
2026-05-05 01:17 13.00342 78.89424 16927 ft 420 kts 100°
2026-05-05 01:17 12.99835 78.92338 16921 ft 420 kts 100°
2026-05-05 01:17 12.99321 78.95289 16921 ft 420 kts 100°
2026-05-05 01:17 12.98807 78.98243 16918 ft 420 kts 100°
2026-05-05 01:18 12.98291 79.01204 16910 ft 421 kts 100°
2026-05-05 01:18 12.97775 79.04161 16908 ft 421 kts 100°
2026-05-05 01:18 12.97264 79.07089 16905 ft 421 kts 100°
2026-05-05 01:18 12.96877 79.10060 16898 ft 421 kts 91°
2026-05-05 01:19 12.96923 79.13074 16902 ft 421 kts 89°
2026-05-05 01:19 12.96973 79.16084 16895 ft 421 kts 89°
2026-05-05 01:19 12.97029 79.19088 16895 ft 421 kts 89°
2026-05-05 01:19 12.97087 79.22055 16892 ft 421 kts 89°
2026-05-05 01:20 12.97146 79.25065 16886 ft 421 kts 89°
2026-05-05 01:20 12.97205 79.28068 16881 ft 421 kts 89°
2026-05-05 01:20 12.97263 79.31073 16881 ft 421 kts 89°
2026-05-05 01:20 12.97321 79.34043 16878 ft 420 kts 89°
2026-05-05 01:21 12.97378 79.37043 16878 ft 420 kts 89°
2026-05-05 01:21 12.97434 79.39991 16763 ft 406 kts 89°
2026-05-05 01:21 12.97490 79.42871 16313 ft 401 kts 89°
2026-05-05 01:21 12.97544 79.45718 15848 ft 396 kts 89°
2026-05-05 01:22 12.97596 79.48506 15372 ft 393 kts 88°
2026-05-05 01:22 12.97648 79.51299 14880 ft 390 kts 88°
2026-05-05 01:22 12.97700 79.54076 14397 ft 388 kts 88°
2026-05-05 01:22 12.97751 79.56847 13919 ft 385 kts 88°
2026-05-05 01:23 12.97800 79.59542 13423 ft 383 kts 88°
2026-05-05 01:23 12.97850 79.62262 12907 ft 380 kts 88°
2026-05-05 01:23 12.97898 79.64960 12440 ft 376 kts 88°
2026-05-05 01:23 12.97947 79.67631 11984 ft 372 kts 88°
2026-05-05 01:24 12.97994 79.70275 11534 ft 368 kts 88°
2026-05-05 01:24 12.98040 79.72890 11215 ft 361 kts 88°
2026-05-05 01:24 12.98085 79.75426 11031 ft 350 kts 88°
2026-05-05 01:24 12.98128 79.77851 10854 ft 340 kts 88°
2026-05-05 01:25 12.98170 79.80238 10691 ft 330 kts 87°
2026-05-05 01:25 12.98211 79.82560 10527 ft 320 kts 87°
2026-05-05 01:25 12.98250 79.84812 10373 ft 311 kts 87°
2026-05-05 01:25 12.98287 79.86993 10219 ft 302 kts 87°
2026-05-05 01:26 12.98320 79.89091 10081 ft 293 kts 88°
2026-05-05 01:26 12.98328 79.91158 9927 ft 285 kts 88°
2026-05-05 01:26 12.98335 79.93189 9636 ft 283 kts 88°
2026-05-05 01:26 12.98345 79.95208 9308 ft 281 kts 88°
2026-05-05 01:27 12.98377 79.97180 9003 ft 279 kts 87°
2026-05-05 01:27 12.98432 79.99161 8702 ft 277 kts 87°
2026-05-05 01:27 12.98489 80.01128 8402 ft 275 kts 87°
2026-05-05 01:27 12.98551 80.03082 8117 ft 272 kts 87°
2026-05-05 01:28 12.98615 80.05018 7820 ft 270 kts 87°
2026-05-05 01:28 12.98683 80.06947 7545 ft 269 kts 87°
2026-05-05 01:28 12.98754 80.08859 7255 ft 267 kts 87°
2026-05-05 01:28 12.98829 80.10739 6976 ft 266 kts 87°
2026-05-05 01:29 12.98909 80.12625 6691 ft 264 kts 86°
2026-05-05 01:29 12.98989 80.14498 6418 ft 263 kts 87°
2026-05-05 01:29 12.99045 80.15742 6301 ft 260 kts 87°
2026-05-05 01:29 12.99156 80.18214 6307 ft 264 kts 87°
2026-05-05 01:30 12.99246 80.20106 6132 ft 266 kts 87°
2026-05-05 01:30 12.99339 80.21997 5842 ft 264 kts 87°
2026-05-05 01:30 12.99405 80.23248 5654 ft 264 kts 87°
2026-05-05 01:30 12.99512 80.25121 5371 ft 262 kts 87°
2026-05-05 01:31 12.99632 80.26988 5086 ft 262 kts 87°
2026-05-05 01:31 12.99751 80.28850 4799 ft 261 kts 88°
2026-05-05 01:31 12.99819 80.30684 4517 ft 259 kts 90°
2026-05-05 01:31 12.99855 80.32532 4214 ft 258 kts 91°
2026-05-05 01:32 12.99893 80.34371 3926 ft 257 kts 91°
2026-05-05 01:32 12.99932 80.36213 3640 ft 257 kts 91°
2026-05-05 01:32 12.99969 80.38046 3351 ft 257 kts 91°
2026-05-05 01:32 13.00014 80.39871 3122 ft 254 kts 91°
2026-05-05 01:33 13.00064 80.41653 2913 ft 251 kts 91°
2026-05-05 01:33 13.00123 80.43430 2700 ft 247 kts 91°
2026-05-05 01:33 13.00184 80.45178 2491 ft 243 kts 89°
2026-05-05 01:33 13.00719 80.46792 2299 ft 242 kts 51°
2026-05-05 01:34 13.02067 80.47688 2296 ft 226 kts 10°
2026-05-05 01:34 13.03529 80.47506 2244 ft 205 kts 326°
2026-05-05 01:34 13.04509 80.46585 2316 ft 192 kts 307°
2026-05-05 01:34 13.05383 80.45533 2357 ft 195 kts 307°
2026-05-05 01:35 13.06260 80.44472 2373 ft 195 kts 307°
2026-05-05 01:35 13.07137 80.43409 2343 ft 194 kts 307°
2026-05-05 01:35 13.07802 80.42246 2263 ft 187 kts 279°
2026-05-05 01:35 13.07798 80.40961 2280 ft 182 kts 257°
2026-05-05 01:36 13.07489 80.39702 2306 ft 181 kts 249°
2026-05-05 01:36 13.07071 80.38480 2308 ft 181 kts 247°
2026-05-05 01:36 13.06627 80.37267 2297 ft 181 kts 246°
2026-05-05 01:36 13.06185 80.36078 2294 ft 180 kts 246°
2026-05-05 01:37 13.05736 80.34875 2296 ft 180 kts 246°
2026-05-05 01:37 13.05290 80.33678 2312 ft 179 kts 246°
2026-05-05 01:37 13.04843 80.32482 2326 ft 180 kts 246°
2026-05-05 01:37 13.04398 80.31291 2308 ft 179 kts 246°
2026-05-05 01:38 13.03954 80.30099 2251 ft 176 kts 246°
2026-05-05 01:38 13.03525 80.28949 2057 ft 170 kts 246°
2026-05-05 01:38 13.03111 80.27844 1859 ft 163 kts 247°
2026-05-05 01:38 13.02728 80.26811 1699 ft 149 kts 245°
2026-05-05 01:39 13.02371 80.25857 1569 ft 140 kts 245°
2026-05-05 01:39 13.02021 80.24934 1358 ft 138 kts 246°
2026-05-05 01:39 13.01677 80.24006 1183 ft 139 kts 246°
2026-05-05 01:39 13.01329 80.23077 993 ft 140 kts 248°
2026-05-05 01:40 13.00983 80.22149 807 ft 141 kts 248°
2026-05-05 01:40 13.00632 80.21205 672 ft 141 kts 247°
2026-05-05 01:40 13.00284 80.20279 486 ft 139 kts 249°
2026-05-05 01:40 12.99932 80.19346 278 ft 140 kts 248°
2026-05-05 01:41 12.99584 80.18414 114 ft 141 kts 249°
2026-05-05 01:41 12.99246 80.17513 53 ft 124 kts 249°
2026-05-05 01:41 12.99008 80.16878 56 ft 80 kts 249°
2026-05-05 01:41 12.98826 80.16438 54 ft 35 kts 229°
2026-05-05 01:42 12.98701 80.16325 58 ft 20 kts 216°
2026-05-05 01:42 12.98586 80.16236 52 ft 22 kts 218°
2026-05-05 01:42 12.98533 80.16152 54 ft 2 kts 254°
2026-05-05 01:42 12.98520 80.16131 55 ft 4 kts 218°
2026-05-05 01:43 12.98487 80.16135 51 ft 6 kts 156°
2026-05-05 01:43 12.98440 80.16155 55 ft 9 kts 158°
2026-05-05 01:43 12.98387 80.16183 55 ft 9 kts 120°
2026-05-05 01:43 12.98402 80.16249 51 ft 11 kts 69°
2026-05-05 01:44 12.98432 80.16332 55 ft 14 kts 70°
2026-05-05 01:44 12.98459 80.16408 52 ft 12 kts 70°
2026-05-05 01:44 12.98487 80.16483 54 ft 5 kts 68°
2026-05-05 01:44 12.98476 80.16514 55 ft 6 kts 155°
2026-05-05 01:45 12.98447 80.16525 56 ft 4 kts 156°
2026-05-05 01:45 12.98440 80.16528 53 ft 0 kts 157°